Regional Weather Roundup
Issued by NWS Albany, NY

Home | Current Version | Previous Version | Text Only | Print | Product List | Glossary On
Versions: 1 2 3 4 5 6 7 8 9 10 11 12 13 14 15 16 17 18 19 20 21 22 23 24 25 26 27 28 29 30 31 32 33 34 35 36 37 38 39 40 41 42 43 44 45 46 47 48 49 50
000
ASUS41 KALY 311810
RWRALY

NEW YORK STATE HOURLY WEATHER ROUNDUP
NATIONAL WEATHER SERVICE ALBANY NY
200 PM EDT MON AUG 31 2015

NOTE: "FAIR" INDICATES FEW OR NO CLOUDS BELOW 12,000 FEET WITH NO
SIGNIFICANT WEATHER AND/OR NO OBSTRUCTIONS TO VISIBILITY.

NYZ032-033-038>043-046>054-057>066-NYZ062>081-311900-
EAST


CITY           SKY/WX    TMP DP  RH WIND       PRES   REMARKS
ALBANY         PTSUNNY   84  64  50 W13       29.97F
GLENS FALLS    MOSUNNY   86  61  42 W12G21    29.93F
POUGHKEEPSIE   PTSUNNY   87  69  54 SW9       29.98F HX  91
NEWBURGH       PTSUNNY   84  70  61 W9        30.02F
MONTGOMERY     PTSUNNY   85  69  58 SW9       30.00F
WHITE PLAINS   PTSUNNY   87  66  49 VRB5      30.00F
ISLIP          CLOUDY    89  65  44 W12       29.97F HX  91
NEW YORK CITY  PTSUNNY   89  63  41 W10       29.99F HX  90
CENTRAL PARK   PTSUNNY   88  66  48 VRB6      30.02F HX  90
$$

NYZ005>009-017-018-044>046-055-056-311900-
CENTRAL


CITY           SKY/WX    TMP DP  RH WIND       PRES   REMARKS
FULTON         MOSUNNY   80  68  66 NW9       30.02S
SYRACUSE       MOSUNNY   83  68  60 W13       30.00F
ROME           PTSUNNY   80  67  64 NW13      30.01F
ELMIRA         SUNNY     88  64  44 W14G21    30.02F
BINGHAMTON     PTSUNNY   79  65  62 NW7       30.06F
MONTICELLO     PTSUNNY   79  66  65 W6G20     30.07F
$$

NYZ026>034-041>043-311900-
NORTH


CITY           SKY/WX    TMP DP  RH WIND       PRES   REMARKS
WATERTOWN      SUNNY     78  68  71 W15G21    29.99S HAZE
FORT DRUM      NOT AVBL
MASSENA        PTSUNNY   78  64  61 W9        29.95F
SARANAC LAKE   CLOUDY    76  59  55 SW14      29.98F
PLATTSBURGH    CLOUDY    82  62  50 NW7       29.90F
$$

NYZ001>004-010>016-019>021-311900-
WEST


CITY           SKY/WX    TMP DP  RH WIND       PRES   REMARKS
NIAGARA FALLS  PTSUNNY   83  66  56 W10       30.03S
BUFFALO        MOSUNNY   79  69  71 SW13      30.05S
DUNKIRK        SUNNY     78  69  73 W12       30.07F HAZE
JAMESTOWN      MOSUNNY   79  64  61 W10       30.11F
WELLSVILLE     PTSUNNY   82  62  50 NW12      30.12F
ROCHESTER      PTSUNNY   82  67  60 W12       30.03S
PENN YAN       MOSUNNY   83  64  52 W12G18    30.04F
$$

             KEY
       WCI = WIND CHILL INDEX
       VSB = VISIBILITY
       HX  = HEAT INDEX
$$


USA.gov is the U.S. government's official web portal to all federal, state and local government web resources and services.